Tulsa International Airport Airport (TUL)

 

Airport Diagram
Current Weather/Forecast (MVFR Conditions)
METAR KTUL 050353Z 02004KT 4SM FEW060 FEW150 FEW250 24/22 A2990 RMK AO2 SLP118 T02390222 $
TAF KTUL 042320Z 0500/0524 09007KT P6SM VCTS SCT050CB SCT250 FM050200 VRB03KT P6SM SCT250 FM051200 06006KT P6SM BKN100 FM052000 12009KT P6SM VCTS SCT050CB

All Charts
General
Chart Name Download
AIRPORT DIAGRAM
TAKEOFF MINIMUMS
ALTERNATE MINIMUMS
RADAR MINIMUMS

Departures
Chart Name Download
TULSA EIGHT

Arrivals
Chart Name Download
VINTA TWO

Approaches
Chart Name Download
ILS OR LOC RWY 18L
ILS OR LOC RWY 18R
ILS OR LOC RWY 36R
ILS RWY 36R (SA CAT I)
ILS RWY 36R (CAT II)
RNAV (GPS) RWY 08
RNAV (GPS) RWY 18L
RNAV (GPS) RWY 18R
RNAV (GPS) RWY 26
RNAV (GPS) RWY 36L
RNAV (GPS) RWY 36R
VOR/DME RWY 08
HI-VOR/DME OR TACAN RWY 26
VOR OR TACAN RWY 26


Inbound Traffic (Arrivals)

No inbound traffic.


Outbound Traffic (Departures)

No outbound traffic.